{"data":{"norad_id":65700,"intl_designator":"2025-212AA","name":"STARLINK-35101","alt_names":[],"object_type":"PAYLOAD","status":"ACTIVE","operator":null,"country":"US","launch_date":"2025-09-21","launch_site_code":"AFETR","launch_vehicle":null,"mission":null,"orbit_class":"UNKNOWN","rcs_meters":null,"size_class":null,"mass_kg":null,"dimensions":null,"purposes":["comms"],"wikipedia_slug":null,"has_3d_model":false,"image_url":null,"decayed_at":null,"tle_current":{"epoch":"2026-05-24T20:50:27.418560Z","epoch_age_seconds":80324,"freshness":"FRESH","line1":"1 65700U 25212AA  26144.86837290  .00030667  00000+0  91495-3 0  9992","line2":"2 65700  53.1606 350.6354 0001191  70.5771 289.5361 15.34404174 38879","mean_motion":15.34404174,"eccentricity":0.0001191,"inclination_deg":53.1606,"raan_deg":350.6354,"arg_perigee_deg":70.5771,"mean_anomaly_deg":289.5361,"bstar":0.00091495,"rev_number":3887,"period_min":93.847502789705,"perigee_km":461.87609163254,"apogee_km":463.50557682265,"semimajor_km":6840.8278342276,"source":"CELESTRAK","updated_at":"2026-05-25T13:38:20.898895Z"}}}